Flag for France Weather past 2 weeks in Dijon, France

Now
55 °F

Partly cloudy.


Feels Like: 55 °F
Forecast: 62 / 72 °F
Wind: 2 mph from North

Location: Dijon Airport

Current Time: Aug 28, 2014 at 5:40:13 AM

Latest Report: Aug 28, 2014 at 4:30 AM


Visibility: N/A

Pressure: 30.04 "Hg

Humidity: 94%

Dew point: 54 °F

Location of DijonLocation

Historic Weather in Dijon — Graph

°F

Dijon temperature yesterday

Maximum temperature yesterday: 72 °F (at 2:00 PM)
Minimum temperature yesterday: 59 °F (at 7:00 AM)
Average temperature yesterday: 65 °F

Past Weeks' High & Low Weather Summary

 TemperatureHumidityPressure
High73 °F (Aug 26, 2:00 PM)100% (Aug 14, 3:30 AM)30.21 "Hg (Aug 14, 3:30 AM)
Low46 °F (Aug 17, 6:30 AM)31% (Aug 22, 12:30 PM)29.65 "Hg (Aug 13, 10:00 AM)
Average61 °F74%30.00 "Hg
* Reported Aug 13 4:00 AM — Aug 28 4:30 AM, Dijon, Weather by CustomWeather, © 2014

Note: Actual official high and low records may vary slightly from our data, if they occured in-between our weather recording intervals... More about our weather records

Advertising

Dijon weather history for previous 24 hours

 ConditionsComfort  
Time TempWeatherWind HumidityBarometerVisibility
4:30 AM
Aug 28
55 °FPartly cloudy.2 mph94%30.04 "HgN/A
4:00 AM55 °FClear.2 mph94%30.04 "HgN/A
3:30 AM55 °FClear.2 mph100%30.04 "HgN/A
3:00 AM55 °FClear.2 mph100%30.04 "HgN/A
2:30 AM55 °FClear.No wind94%30.04 "HgN/A
2:00 AM57 °FClear.5 mph94%30.07 "HgN/A
1:30 AM59 °FClear.2 mph94%30.07 "HgN/A
1:00 AM61 °FClear.No wind88%30.07 "HgN/A
12:30 AM63 °FClear.5 mph83%30.04 "HgN/A
12:00 AM61 °FClear.1 mph94%30.04 "HgN/A
11:30 PM
Aug 27
61 °FClear.No wind88%30.04 "HgN/A
11:00 PM63 °FClear.2 mph83%30.04 "HgN/A
10:30 PM63 °FClear.1 mph83%30.04 "HgN/A
10:00 PM63 °FClear.2 mph83%30.04 "HgN/A
9:30 PM63 °FClear.3 mph77%30.04 "HgN/A
9:00 PM64 °FClear.1 mph78%30.04 "HgN/A
8:00 PM66 °FClear.3 mph73%30.01 "HgN/A
7:30 PM68 °FClear.No wind69%30.01 "HgN/A
7:00 PM68 °FClear.3 mph69%30.04 "HgN/A
6:30 PM68 °FMore clouds than sun.8 mph64%30.04 "HgN/A
6:00 PM70 °FClear.7 mph60%30.04 "HgN/A
4:30 PM72 °FClear.2 mph57%30.04 "HgN/A
4:00 PM70 °FMore clouds than sun.3 mph57%30.04 "HgN/A
3:30 PM70 °FMostly cloudy.3 mph64%30.04 "HgN/A
3:00 PM70 °FMostly cloudy.5 mph57%30.04 "HgN/A
2:30 PM72 °FPartly sunny.6 mph57%30.01 "HgN/A
2:00 PM72 °FPartly sunny.5 mph61%30.01 "HgN/A
1:30 PM70 °FMore clouds than sun.No wind60%30.01 "HgN/A
1:00 PM68 °FMostly cloudy.1 mph69%30.01 "HgN/A
12:30 PM68 °FMostly cloudy.5 mph73%30.01 "HgN/A
12:00 PM66 °FMostly cloudy.3 mph73%30.04 "HgN/A
11:30 AM68 °FPartly sunny.3 mph73%30.01 "HgN/A
11:00 AM68 °FScattered clouds.3 mph73%30.01 "HgN/A
10:30 AM64 °FPartly sunny.6 mph78%30.01 "HgN/A
10:00 AM64 °FClear.5 mph83%30.01 "HgN/A
9:30 AM63 °FClear.5 mph83%30.01 "HgN/A
9:00 AM63 °FClear.3 mph83%30.01 "HgN/A
8:30 AM63 °FClear.6 mph83%29.98 "HgN/A
8:00 AM59 °FClear.6 mph88%29.98 "HgN/A
7:30 AM59 °FPassing clouds.3 mph88%29.98 "HgN/A
7:00 AM59 °FPassing clouds.3 mph88%29.95 "HgN/A
6:30 AM61 °FPassing clouds.3 mph83%29.95 "HgN/A
6:00 AM61 °FPassing clouds.3 mph83%29.95 "HgN/A
5:30 AM61 °FClear.7 mph83%29.92 "HgN/A
5:00 AM63 °FClear.7 mph77%29.92 "HgN/A
Weather by CustomWeather, © 2014

See weather overviewHow to use our weather pages